Gainesville, GA

5:50 AM EST on December 09, 2019 (GMT -0500)
Gilmer Memorial

Weather History for KGVL - August, 2019

Change the Weather History Date:

Saturday, August 3, 2019

  Actual Average Record
Temperature  
Mean Temperature 79 °F 79 °F  
Max Temperature 87 °F 88 °F 100 °F (1957)
Min Temperature 70 °F 70 °F 60 °F (1965)
Cooling Degree Days 14 14  
Month to date cooling degree days 40 42  
Year to date cooling degree days 1113 964  
Since 1 June cooling degree days 777 789  
Growing Degree Days 28 (Base 50)    
Moisture  
Dew Point 69 °F    
Average Humidity 79    
Maximum Humidity 100    
Minimum Humidity 57    
Precipitation  
Precipitation 0.00 in 0.17 in 3.75 in (1969)
Month to date precipitation 0.58 0.49  
Year to date precipitation 35.42 32.31  
Sea Level Pressure  
Sea Level Pressure 30.02 in    
Wind  
Wind Speed 4 mph (NE)    
Max Wind Speed 9 mph    
Max Gust Speed 12 mph    
Visibility 10 miles    
Events      
T = Trace of Precipitation, MM = Missing Value Source: NWS Daily Summary

Daily Weather History Graph

Daily Weather History Graph

Search for Another Location

Airport or City:

Astronomy

Aug. 03, 2019 Rise Set
Actual Time 6:47 AM EDT 8:35 PM EDT
Civil Twilight 6:20 AM EDT 9:02 PM EDT
Nautical Twilight 5:47 AM EDT 9:35 PM EDT
Astronomical Twilight 5:11 AM EDT 10:10 PM EDT
Moon 9:33 AM EDT (8/3) 10:47 PM EDT (8/3)
Length of Visible Light 14h 42m
Length of Day
13h 47m
Waxing Crescent, 10% of the Moon is Illuminated
Aug 3
Waxing Crescent
Aug 7
First Quarter
Aug 15
Full
Aug 23
Last Quarter
Aug 30
New

Hourly Weather History & Observations

Time (EDT) Temp. Heat Index Dew Point Humidity Pressure Visibility Wind Dir Wind Speed Gust Speed Precip Events Conditions
12:33 AM 72.0 °F - 71.1 °F 97% 30.11 in 10.0 mi NE 8.1 mph - N/A   Scattered Clouds
12:53 AM 72.0 °F - 70.0 °F 93% 30.07 in 10.0 mi NE 5.8 mph - N/A   Mostly Cloudy
1:53 AM 71.1 °F - 69.1 °F 93% 30.05 in 10.0 mi ENE 4.6 mph - N/A   Mostly Cloudy
2:53 AM 70.0 °F - 68.0 °F 93% 30.03 in 10.0 mi ENE 4.6 mph - N/A   Clear
3:19 AM 70.0 °F - 69.1 °F 97% 30.08 in 10.0 mi NNE 5.8 mph - N/A   Mostly Cloudy
3:37 AM 70.0 °F - 69.1 °F 97% 30.07 in 10.0 mi NE 5.8 mph - N/A   Scattered Clouds
3:53 AM 70.0 °F - 69.1 °F 97% 30.01 in 10.0 mi NE 5.8 mph - N/A   Partly Cloudy
4:21 AM 70.0 °F - 68.0 °F 93% 30.06 in 10.0 mi NE 4.6 mph - N/A   Mostly Cloudy
4:53 AM 70.0 °F - 68.0 °F 93% 30.02 in 10.0 mi ENE 5.8 mph - N/A   Overcast
5:25 AM 70.0 °F - 68.0 °F 93% 30.05 in 10.0 mi ENE 6.9 mph - N/A   Mostly Cloudy
5:53 AM 70.0 °F - 66.9 °F 90% 30.01 in 10.0 mi NE 5.8 mph - N/A   Scattered Clouds
6:14 AM 70.0 °F - 68.0 °F 93% 30.06 in 10.0 mi NE 3.5 mph - N/A   Mostly Cloudy
6:53 AM 71.1 °F - 68.0 °F 90% 30.03 in 10.0 mi NE 3.5 mph - N/A   Overcast
7:53 AM 72.0 °F - 68.0 °F 87% 30.04 in 10.0 mi ENE 5.8 mph - N/A   Overcast
8:19 AM 72.0 °F - 66.9 °F 84% 30.09 in 10.0 mi East 5.8 mph - N/A   Scattered Clouds
8:53 AM 73.0 °F - 66.9 °F 81% 30.04 in 10.0 mi NE 6.9 mph - N/A   Scattered Clouds
9:53 AM 73.9 °F - 69.1 °F 85% 30.04 in 10.0 mi ENE 4.6 mph - N/A   Mostly Cloudy
10:53 AM 80.1 °F 83.2 °F 70.0 °F 71% 30.04 in 10.0 mi ENE 4.6 mph - N/A   Mostly Cloudy
11:53 AM 81.0 °F 84.4 °F 70.0 °F 69% 30.04 in 10.0 mi North 4.6 mph - N/A   Partly Cloudy
12:53 PM 82.9 °F 86.5 °F 69.1 °F 63% 30.03 in 10.0 mi Calm Calm - N/A   Partly Cloudy
1:53 PM 84.0 °F 87.8 °F 69.1 °F 61% 30.00 in 10.0 mi Variable 4.6 mph - N/A   Overcast
2:53 PM 82.9 °F 86.5 °F 69.1 °F 63% 29.98 in 10.0 mi Variable 3.5 mph - N/A   Scattered Clouds
3:53 PM 82.9 °F 85.8 °F 68.0 °F 60% 29.96 in 10.0 mi Calm Calm - N/A   Overcast
4:53 PM 82.9 °F 86.5 °F 69.1 °F 63% 29.95 in 10.0 mi WSW 3.5 mph - N/A   Mostly Cloudy
5:53 PM 84.0 °F 87.0 °F 68.0 °F 58% 29.95 in 10.0 mi NNE 6.9 mph - N/A   Clear
6:53 PM 86.0 °F 90.1 °F 69.1 °F 57% 29.95 in 10.0 mi North 5.8 mph - N/A   Clear
7:53 PM 82.9 °F 87.0 °F 70.0 °F 65% 29.95 in 10.0 mi Calm Calm - N/A   Clear
8:53 PM 79.0 °F - 72.0 °F 79% 29.96 in 10.0 mi SSE 3.5 mph - N/A   Clear
9:53 PM 79.0 °F - 72.0 °F 79% 29.99 in 10.0 mi Calm Calm - N/A   Clear
10:53 PM 75.9 °F - 70.0 °F 82% 29.99 in 10.0 mi NE 4.6 mph - N/A   Clear
11:53 PM 75.0 °F - 69.1 °F 82% 30.00 in 10.0 mi NE 3.5 mph - N/A   Clear